Terminal Aerodrome Forecast
Issued by NWS Des Moines, IA

Home | Current Version | Previous Version | Text Only | Print | Product List | Glossary On
Versions: 1 2 3 4 5 6 7 8 9 10 11 12 13 14 15 16 17 18 19 20
000
FTUS43 KDMX 272324
TAFALO
TAF
KALO 272324Z 2800/2824 15010KT P6SM SCT030 OVC100
     FM280400 14010KT P6SM OVC080
     FM280600 15010KT 4SM BR VCSH OVC015
     FM281100 19006KT 3SM -SHRA BR OVC007=

USA.gov is the U.S. government's official web portal to all federal, state and local government web resources and services.